,,,PA_Meas_PMT16A,,PR_Meas_QMR101_102,,RH_Meas_QMH101,,SR_Meas_QMS101,,TA_Meas_QMH101,,GenWind,,GenWind,
date,time,status,PA,status,PR,status,RH,status,SR,status,TA,status,DirAvg,status,SpdAvg,
2014-10-12, 00:00:04,VALID,1010.36,VALID,0,INVALID,123.781,VALID,0,VALID,23.1485,VALID,6,VALID,0,
2014-10-12, 00:01:04,VALID,1010.36,VALID,0,INVALID,123.979,VALID,0,VALID,23.1485,VALID,6,VALID,0,
2014-10-12, 00:02:04,VALID,1010.33,VALID,0,INVALID,123.873,VALID,0,VALID,23.129,VALID,6,VALID,0,
2014-10-12, 00:03:04,VALID,1010.32,VALID,0,INVALID,123.766,VALID,0,VALID,23.1095,VALID,6,VALID,0,
2014-10-12, 00:04:04,VALID,1010.29,VALID,0,INVALID,124.025,VALID,0,VALID,23.09,VALID,6,VALID,0,
2014-10-12, 00:05:04,VALID,1010.27,VALID,0,INVALID,124.475,VALID,0,VALID,23.0918,VALID,6,VALID,0,
2014-10-12, 00:06:04,VALID,1010.24,VALID,0,INVALID,125.039,VALID,0,VALID,23.0723,VALID,6,VALID,0,
2014-10-12, 00:07:04,VALID,1010.22,VALID,0,INVALID,125.474,VALID,0,VALID,23.0511,VALID,6,VALID,0,
2014-10-12, 00:08:04,VALID,1010.26,VALID,0,INVALID,125.909,VALID,0,VALID,23.0316,VALID,6,VALID,0,
2014-10-12, 00:09:04,VALID,1010.21,VALID,0,INVALID,126.633,VALID,0,VALID,23.0316,VALID,6,VALID,0,
2014-10-12, 00:10:04,VALID,1010.22,VALID,0,INVALID,127.365,VALID,0,VALID,23.0316,VALID,6,VALID,0,
2014-10-12, 00:11:04,VALID,1010.21,VALID,0,INVALID,127.953,VALID,0,VALID,23.0316,VALID,6,VALID,0.236328,
2014-10-12, 00:12:04,VALID,1010.2,VALID,0,INVALID,129.371,VALID,0,VALID,23.0316,VALID,6,VALID,0.172656,
2014-10-12, 00:13:04,VALID,1010.22,VALID,0,INVALID,130.69,VALID,0,VALID,23.0316,VALID,6,VALID,0.261328,
2014-10-12, 00:14:05,VALID,1010.19,VALID,0,INVALID,132.513,VALID,0,VALID,23.0511,VALID,6,VALID,0.2,
2014-10-12, 00:15:05,VALID,1010.2,VALID,0,INVALID,133.13,VALID,0,VALID,23.0511,VALID,6,VALID,0.268359,
2014-10-12, 00:16:05,VALID,1010.21,VALID,0,INVALID,133.885,VALID,0,VALID,23.0511,VALID,6,VALID,0.157813,
2014-10-12, 00:17:05,VALID,1010.18,VALID,0,INVALID,134.648,VALID,0,VALID,23.0511,VALID,6,VALID,0.221484,
2014-10-12, 00:18:05,VALID,1010.16,VALID,0,INVALID,134.747,VALID,0,VALID,23.0918,VALID,6,VALID,0.172656,
2014-10-12, 00:19:05,VALID,1010.17,VALID,0,INVALID,134.892,VALID,0,VALID,23.09,VALID,6,VALID,0.244922,
2014-10-12, 00:20:05,VALID,1010.13,VALID,0,INVALID,134.93,VALID,0,VALID,23.09,VALID,6,VALID,0.317578,
2014-10-12, 00:21:05,VALID,1010.08,VALID,0,INVALID,134.739,VALID,0,VALID,23.09,VALID,6,VALID,0.225781,
2014-10-12, 00:22:05,VALID,1010.08,VALID,0,INVALID,134.091,VALID,0,VALID,23.09,VALID,6,VALID,0.285547,
2014-10-12, 00:23:05,VALID,1010.05,VALID,0,INVALID,133.268,VALID,0,VALID,23.0705,VALID,6,VALID,0.263281,
2014-10-12, 00:24:05,VALID,1010.03,VALID,0,INVALID,133.001,VALID,0,VALID,23.0705,VALID,6,VALID,0.34375,
2014-10-12, 00:25:05,VALID,1010.01,VALID,0,INVALID,133.237,VALID,0,VALID,23.0723,VALID,6,VALID,0.352734,
2014-10-12, 00:26:05,VALID,1010.01,VALID,0,INVALID,133.84,VALID,0,VALID,23.0705,VALID,6,VALID,0.395703,
2014-10-12, 00:27:05,VALID,1009.99,VALID,0,INVALID,133.908,VALID,0,VALID,23.0511,VALID,6,VALID,0.303125,
2014-10-12, 00:28:05,VALID,1009.97,VALID,0,INVALID,133.298,VALID,0,VALID,23.0511,VALID,6,VALID,0.451953,
2014-10-12, 00:29:05,VALID,1009.94,VALID,0,INVALID,132.78,VALID,0,VALID,23.0316,VALID,6,VALID,0.385938,
2014-10-12, 00:30:05,VALID,1009.91,VALID,0,INVALID,132.863,VALID,0,VALID,23.0316,VALID,6,VALID,0.259766,
2014-10-12, 00:31:05,VALID,1009.91,VALID,0,INVALID,132.612,VALID,0,VALID,22.9926,VALID,6,VALID,0.190234,
2014-10-12, 00:32:05,VALID,1009.91,VALID,0,INVALID,132.253,VALID,0,VALID,22.9731,VALID,6,VALID,0,
2014-10-12, 00:33:05,VALID,1009.9,VALID,0,INVALID,132.421,VALID,0,VALID,22.9536,VALID,6,VALID,0,
2014-10-12, 00:34:05,VALID,1009.89,VALID,0,INVALID,132.383,VALID,0,VALID,22.9554,VALID,6,VALID,0,
2014-10-12, 00:35:05,VALID,1009.92,VALID,0,INVALID,133.169,VALID,0,VALID,22.9342,VALID,6,VALID,0,
2014-10-12, 00:36:05,VALID,1009.95,VALID,0,INVALID,134.045,VALID,0.112112,VALID,22.9342,VALID,6,VALID,0,
2014-10-12, 00:37:05,VALID,1009.94,VALID,0,INVALID,134.617,VALID,0,VALID,22.9147,VALID,6,VALID,0,
2014-10-12, 00:38:05,VALID,1009.94,VALID,0,INVALID,135.037,VALID,0,VALID,22.9147,VALID,6,VALID,0,
2014-10-12, 00:39:05,VALID,1009.94,VALID,0,INVALID,135.311,VALID,0.112112,VALID,22.8952,VALID,6,VALID,0,
2014-10-12, 00:40:05,VALID,1009.92,VALID,0,INVALID,135.563,VALID,0,VALID,22.8952,VALID,6,VALID,0,
2014-10-12, 00:41:05,VALID,1009.9,VALID,0,INVALID,135.876,VALID,0,VALID,22.9147,VALID,6,VALID,0,
2014-10-12, 00:42:05,VALID,1009.9,VALID,0,INVALID,135.937,VALID,0,VALID,22.9147,VALID,6,VALID,0,
2014-10-12, 00:43:05,VALID,1009.9,VALID,0,INVALID,135.815,VALID,0,VALID,22.874,VALID,6,VALID,0.144531,
2014-10-12, 00:44:05,VALID,1009.89,VALID,0,INVALID,135.738,VALID,0,VALID,22.8757,VALID,6,VALID,0.125,
2014-10-12, 00:45:05,VALID,1009.88,VALID,0,INVALID,135.899,VALID,0,VALID,22.8562,VALID,6,VALID,0.355469,
2014-10-12, 00:46:05,VALID,1009.89,VALID,0,INVALID,136.005,VALID,0,VALID,22.8757,VALID,6,VALID,0.426562,
2014-10-12, 00:47:05,VALID,1009.89,VALID,0,INVALID,136.005,VALID,0,VALID,22.8757,VALID,6,VALID,0.382422,
2014-10-12, 00:48:05,VALID,1009.91,VALID,0,INVALID,135.868,VALID,0,VALID,22.835,VALID,6,VALID,0.4,
2014-10-12, 00:49:05,VALID,1009.95,VALID,0,INVALID,135.777,VALID,0,VALID,22.8562,VALID,6,VALID,0.208594,
2014-10-12, 00:50:05,VALID,1009.95,VALID,0,INVALID,135.754,VALID,0,VALID,22.8562,VALID,6,VALID,0.26875,
2014-10-12, 00:51:05,VALID,1009.98,VALID,0,INVALID,135.708,VALID,0,VALID,22.8562,VALID,6,VALID,0.00585938,
2014-10-12, 00:52:05,VALID,1009.98,VALID,0,INVALID,135.586,VALID,0,VALID,22.8368,VALID,6,VALID,0,
2014-10-12, 00:53:05,VALID,1009.98,VALID,0,INVALID,135.571,VALID,0,VALID,22.8368,VALID,6,VALID,0,
2014-10-12, 00:54:05,VALID,1009.97,VALID,0,INVALID,135.38,VALID,0,VALID,22.8368,VALID,6,VALID,0.371875,
2014-10-12, 00:55:05,VALID,1009.95,VALID,0,INVALID,135.35,VALID,0,VALID,22.8562,VALID,6,VALID,0.275391,
2014-10-12, 00:56:05,VALID,1009.95,VALID,0,INVALID,135.357,VALID,0,VALID,22.8562,VALID,6,VALID,0.303125,
2014-10-12, 00:57:05,VALID,1009.92,VALID,0,INVALID,135.227,VALID,0,VALID,22.835,VALID,6,VALID,0,
2014-10-12, 00:58:05,VALID,1009.93,VALID,0,INVALID,135.479,VALID,0,VALID,22.8562,VALID,6,VALID,0,
2014-10-12, 00:59:05,VALID,1009.94,VALID,0,INVALID,135.563,VALID,0,VALID,22.8562,VALID,6,VALID,0.0167969,
2014-10-12, 01:00:05,VALID,1009.92,VALID,0,INVALID,135.586,VALID,0,VALID,22.8562,VALID,6,VALID,0.00585938,
2014-10-12, 01:01:05,VALID,1009.93,VALID,0,INVALID,135.632,VALID,0,VALID,22.8368,VALID,6,VALID,0.276563,
2014-10-12, 01:02:05,VALID,1009.9,VALID,0,INVALID,135.609,VALID,0,VALID,22.8562,VALID,6,VALID,0.289453,
2014-10-12, 01:03:05,VALID,1009.88,VALID,0,INVALID,135.632,VALID,0,VALID,22.8368,VALID,6,VALID,0.400391,
2014-10-12, 01:04:05,VALID,1009.87,VALID,0,INVALID,135.624,VALID,0,VALID,22.858,VALID,6,VALID,0.399219,
2014-10-12, 01:05:05,VALID,1009.86,VALID,0,INVALID,135.609,VALID,0,VALID,22.8155,VALID,6,VALID,0.208984,
2014-10-12, 01:06:05,VALID,1009.85,VALID,0,INVALID,135.525,VALID,0,VALID,22.8562,VALID,6,VALID,0.497266,
2014-10-12, 01:07:05,VALID,1009.86,VALID,0,INVALID,135.472,VALID,0,VALID,22.8562,VALID,6,VALID,0.224609,
2014-10-12, 01:08:05,VALID,1009.86,VALID,0,INVALID,135.494,VALID,0,VALID,22.8155,VALID,6,VALID,0.392969,
2014-10-12, 01:09:05,VALID,1009.85,VALID,0,INVALID,135.548,VALID,0,VALID,22.8368,VALID,6,VALID,0.314453,
2014-10-12, 01:10:05,VALID,1009.87,VALID,0,INVALID,135.548,VALID,0.112112,VALID,22.8562,VALID,6,VALID,0.670703,
2014-10-12, 01:11:05,VALID,1009.86,VALID,0,INVALID,135.586,VALID,0,VALID,22.8368,VALID,6,VALID,0.611719,
2014-10-12, 01:12:05,VALID,1009.85,VALID,0,INVALID,135.655,VALID,0,VALID,22.8368,VALID,6,VALID,0.607031,
2014-10-12, 01:13:05,VALID,1009.84,VALID,0,INVALID,135.693,VALID,0,VALID,22.8368,VALID,6,VALID,0.682813,
2014-10-12, 01:14:05,VALID,1009.85,VALID,0,INVALID,135.777,VALID,0,VALID,22.8562,VALID,6,VALID,0.869922,
2014-10-12, 01:15:05,VALID,1009.83,VALID,0,INVALID,135.868,VALID,0,VALID,22.8562,VALID,6,VALID,0.618359,
2014-10-12, 01:16:05,VALID,1009.81,VALID,0,INVALID,135.982,VALID,0.112112,VALID,22.8562,VALID,6,VALID,0.546484,
2014-10-12, 01:17:05,VALID,1009.82,VALID,0,INVALID,136.066,VALID,0,VALID,22.835,VALID,6,VALID,0.466406,
2014-10-12, 01:18:05,VALID,1009.8,VALID,0,INVALID,136.12,VALID,0.112112,VALID,22.8562,VALID,6,VALID,0.320703,
2014-10-12, 01:19:05,VALID,1009.78,VALID,0,INVALID,136.181,VALID,0,VALID,22.8757,VALID,6,VALID,0.240234,
2014-10-12, 01:20:05,VALID,1009.79,VALID,0,INVALID,136.28,VALID,0,VALID,22.8562,VALID,6,VALID,0.201172,
2014-10-12, 01:21:05,VALID,1009.76,VALID,0,INVALID,136.318,VALID,0,VALID,22.8757,VALID,6,VALID,0.384766,
2014-10-12, 01:22:05,VALID,1009.72,VALID,0,INVALID,136.341,VALID,0.112112,VALID,22.8545,VALID,6,VALID,0.155078,
2014-10-12, 01:23:05,VALID,1009.7,VALID,0,INVALID,136.364,VALID,0,VALID,22.8757,VALID,6,VALID,0,
2014-10-12, 01:24:05,VALID,1009.68,VALID,0,INVALID,136.425,VALID,0,VALID,22.8757,VALID,6,VALID,0.0535156,
2014-10-12, 01:25:05,VALID,1009.67,VALID,0,INVALID,136.47,VALID,0,VALID,22.8757,VALID,6,VALID,0.0105469,
2014-10-12, 01:26:05,VALID,1009.65,VALID,0,INVALID,136.493,VALID,0,VALID,22.8562,VALID,6,VALID,0,
2014-10-12, 01:27:05,VALID,1009.62,VALID,0,INVALID,136.501,VALID,0,VALID,22.8775,VALID,6,VALID,0,
2014-10-12, 01:28:05,VALID,1009.61,VALID,0,INVALID,136.562,VALID,0,VALID,22.8562,VALID,6,VALID,0,
2014-10-12, 01:29:05,VALID,1009.58,VALID,0,INVALID,136.638,VALID,0,VALID,22.8562,VALID,6,VALID,0,
2014-10-12, 01:30:05,VALID,1009.57,VALID,0,INVALID,136.654,VALID,0.112112,VALID,22.8562,VALID,6,VALID,0.284766,
2014-10-12, 01:31:05,VALID,1009.52,VALID,0,INVALID,136.661,VALID,0,VALID,22.8562,VALID,6,VALID,0.262109,
2014-10-12, 01:32:05,VALID,1009.5,VALID,0,INVALID,136.692,VALID,0,VALID,22.8757,VALID,6,VALID,0.323438,
2014-10-12, 01:33:05,VALID,1009.5,VALID,0,INVALID,136.699,VALID,0.112112,VALID,22.8562,VALID,6,VALID,0,
2014-10-12, 01:34:05,VALID,1009.48,VALID,0,INVALID,136.737,VALID,0.112112,VALID,22.835,VALID,6,VALID,0,
2014-10-12, 01:35:05,VALID,1009.48,VALID,0,INVALID,136.722,VALID,0.112112,VALID,22.858,VALID,6,VALID,0.378906,
2014-10-12, 01:36:05,VALID,1009.48,VALID,0,INVALID,136.737,VALID,0,VALID,22.8368,VALID,6,VALID,0.0257812,
2014-10-12, 01:37:05,VALID,1009.46,VALID,0,INVALID,136.798,VALID,0,VALID,22.8368,VALID,6,VALID,0,
2014-10-12, 01:38:05,VALID,1009.48,VALID,0,INVALID,136.783,VALID,0,VALID,22.8368,VALID,6,VALID,0,
2014-10-12, 01:39:05,VALID,1009.48,VALID,0,INVALID,136.783,VALID,0.112112,VALID,22.8368,VALID,6,VALID,0.183984,
2014-10-12, 01:40:05,VALID,1009.47,VALID,0,INVALID,136.783,VALID,0,VALID,22.8368,VALID,6,VALID,0,
2014-10-12, 01:41:05,VALID,1009.48,VALID,0,INVALID,136.798,VALID,0,VALID,22.7961,VALID,6,VALID,0.166406,
2014-10-12, 01:42:05,VALID,1009.47,VALID,0,INVALID,136.798,VALID,0,VALID,22.8368,VALID,6,VALID,0,
2014-10-12, 01:43:05,VALID,1009.46,VALID,0,INVALID,136.76,VALID,0,VALID,22.8368,VALID,6,VALID,0,
2014-10-12, 01:44:05,VALID,1009.49,VALID,0,INVALID,136.776,VALID,0,VALID,22.8173,VALID,6,VALID,0,
2014-10-12, 01:45:05,VALID,1009.49,VALID,0,INVALID,136.776,VALID,0,VALID,22.8155,VALID,6,VALID,0.0628906,
2014-10-12, 01:46:05,VALID,1009.51,VALID,0,INVALID,136.791,VALID,0,VALID,22.8368,VALID,6,VALID,0,
2014-10-12, 01:47:05,VALID,1009.54,VALID,0,INVALID,136.798,VALID,0,VALID,22.8368,VALID,6,VALID,0,
2014-10-12, 01:48:05,VALID,1009.53,VALID,0,INVALID,136.814,VALID,0,VALID,22.8368,VALID,6,VALID,0,
2014-10-12, 01:49:05,VALID,1009.52,VALID,0,INVALID,136.821,VALID,0,VALID,22.8173,VALID,6,VALID,0,
2014-10-12, 01:50:05,VALID,1009.54,VALID,0,INVALID,136.806,VALID,0,VALID,22.8173,VALID,6,VALID,0,
2014-10-12, 01:51:05,VALID,1009.52,VALID,0,INVALID,136.806,VALID,0.112112,VALID,22.8368,VALID,6,VALID,0,
2014-10-12, 01:52:05,VALID,1009.52,VALID,0,INVALID,136.821,VALID,0,VALID,22.8173,VALID,6,VALID,0,
2014-10-12, 01:53:05,VALID,1009.53,VALID,0,INVALID,136.821,VALID,0,VALID,22.8173,VALID,6,VALID,0,
2014-10-12, 01:54:05,VALID,1009.5,VALID,0,INVALID,136.783,VALID,0,VALID,22.8368,VALID,6,VALID,0,
2014-10-12, 01:55:05,VALID,1009.5,VALID,0,INVALID,136.814,VALID,0,VALID,22.8173,VALID,6,VALID,0,
2014-10-12, 01:56:05,VALID,1009.5,VALID,0,INVALID,136.798,VALID,0,VALID,22.8368,VALID,6,VALID,0,
2014-10-12, 01:57:05,VALID,1009.45,VALID,0,INVALID,136.783,VALID,0,VALID,22.8368,VALID,6,VALID,0,
2014-10-12, 01:58:05,VALID,1009.46,VALID,0,INVALID,136.768,VALID,0,VALID,22.8562,VALID,6,VALID,0,
2014-10-12, 01:59:05,VALID,1009.43,VALID,0,INVALID,136.791,VALID,0,VALID,22.8368,VALID,6,VALID,0,
2014-10-12, 02:00:05,VALID,1009.41,VALID,0,INVALID,136.806,VALID,0,VALID,22.8368,VALID,6,VALID,0,
2014-10-12, 02:01:05,VALID,1009.38,VALID,0,INVALID,136.852,VALID,0,VALID,22.8562,VALID,6,VALID,0.0605469,
2014-10-12, 02:02:05,VALID,1009.38,VALID,0,INVALID,136.791,VALID,0,VALID,22.8562,VALID,6,VALID,0.232031,
2014-10-12, 02:03:05,VALID,1009.38,VALID,0,INVALID,136.852,VALID,0,VALID,22.8562,VALID,6,VALID,0,
2014-10-12, 02:04:05,VALID,1009.37,VALID,0,INVALID,136.837,VALID,0.112112,VALID,22.8562,VALID,6,VALID,0,
2014-10-12, 02:05:05,VALID,1009.38,VALID,0,INVALID,136.882,VALID,0,VALID,22.8562,VALID,6,VALID,0.0773437,
2014-10-12, 02:06:05,VALID,1009.36,VALID,0,INVALID,136.898,VALID,0.112112,VALID,22.8545,VALID,6,VALID,0,
2014-10-12, 02:07:05,VALID,1009.35,VALID,0,INVALID,136.867,VALID,0,VALID,22.8952,VALID,6,VALID,0,
2014-10-12, 02:08:05,VALID,1009.4,VALID,0,INVALID,136.882,VALID,0.112112,VALID,22.874,VALID,6,VALID,0,
2014-10-12, 02:09:05,VALID,1009.36,VALID,0,INVALID,136.913,VALID,0,VALID,22.8757,VALID,6,VALID,0,
2014-10-12, 02:10:05,VALID,1009.38,VALID,0,INVALID,136.92,VALID,0.112112,VALID,22.874,VALID,6,VALID,0,
2014-10-12, 02:11:05,VALID,1009.38,VALID,0,INVALID,136.943,VALID,0.112112,VALID,22.8757,VALID,6,VALID,0.00234375,
2014-10-12, 02:12:05,VALID,1009.37,VALID,0,INVALID,136.974,VALID,0,VALID,22.874,VALID,6,VALID,0.176563,
2014-10-12, 02:13:05,VALID,1009.38,VALID,0,INVALID,136.959,VALID,0,VALID,22.8952,VALID,6,VALID,0.282422,
2014-10-12, 02:14:05,VALID,1009.36,VALID,0,INVALID,136.951,VALID,0,VALID,22.8952,VALID,6,VALID,0.224609,
2014-10-12, 02:15:05,VALID,1009.39,VALID,0,INVALID,137.004,VALID,0,VALID,22.874,VALID,6,VALID,0.163281,
2014-10-12, 02:16:05,VALID,1009.4,VALID,0,INVALID,136.943,VALID,0.112112,VALID,22.9147,VALID,6,VALID,0.1625,
2014-10-12, 02:17:05,VALID,1009.41,VALID,0,INVALID,136.806,VALID,0,VALID,22.9147,VALID,6,VALID,0.0621094,
2014-10-12, 02:18:05,VALID,1009.43,VALID,0,INVALID,136.638,VALID,0.112112,VALID,22.9147,VALID,6,VALID,0,
2014-10-12, 02:19:05,VALID,1009.41,VALID,0,INVALID,136.47,VALID,0,VALID,22.9147,VALID,6,VALID,0,
2014-10-12, 02:20:05,VALID,1009.46,VALID,0,INVALID,136.333,VALID,0,VALID,22.9342,VALID,6,VALID,0,
2014-10-12, 02:21:05,VALID,1009.46,VALID,0,INVALID,136.287,VALID,0,VALID,22.9536,VALID,6,VALID,0,
2014-10-12, 02:22:05,VALID,1009.45,VALID,0,INVALID,136.28,VALID,0,VALID,22.9536,VALID,6,VALID,0,
2014-10-12, 02:23:05,VALID,1009.45,VALID,0,INVALID,136.211,VALID,0,VALID,22.9731,VALID,6,VALID,0,
2014-10-12, 02:24:05,VALID,1009.46,VALID,0,INVALID,136.143,VALID,0,VALID,22.9731,VALID,6,VALID,0,
2014-10-12, 02:25:05,VALID,1009.45,VALID,0,INVALID,136.188,VALID,0,VALID,22.9731,VALID,6,VALID,0,
2014-10-12, 02:26:05,VALID,1009.45,VALID,0,INVALID,136.242,VALID,0,VALID,22.9731,VALID,6,VALID,0,
2014-10-12, 02:27:05,VALID,1009.46,VALID,0,INVALID,136.409,VALID,0,VALID,22.9731,VALID,6,VALID,0,
2014-10-12, 02:28:05,VALID,1009.46,VALID,0,INVALID,136.699,VALID,0,VALID,22.9731,VALID,6,VALID,0,
2014-10-12, 02:29:05,VALID,1009.45,VALID,0,INVALID,136.882,VALID,0,VALID,22.9926,VALID,6,VALID,0,
2014-10-12, 02:30:05,VALID,1009.44,VALID,0,INVALID,136.898,VALID,0,VALID,22.9943,VALID,6,VALID,0,
2014-10-12, 02:31:05,VALID,1009.44,VALID,0,INVALID,136.821,VALID,0,VALID,23.0138,VALID,6,VALID,0,
2014-10-12, 02:32:05,VALID,1009.41,VALID,0,INVALID,136.707,VALID,0,VALID,22.9731,VALID,6,VALID,0,
2014-10-12, 02:33:05,VALID,1009.43,VALID,0,INVALID,136.684,VALID,0,VALID,22.9519,VALID,6,VALID,0,
2014-10-12, 02:34:05,VALID,1009.43,VALID,0,INVALID,136.654,VALID,0,VALID,22.9731,VALID,6,VALID,0.258984,
2014-10-12, 02:35:05,VALID,1009.43,VALID,0,INVALID,136.676,VALID,0,VALID,22.9536,VALID,6,VALID,0.267578,
2014-10-12, 02:36:05,VALID,1009.44,VALID,0,INVALID,136.44,VALID,0,VALID,22.9342,VALID,6,VALID,0.172656,
2014-10-12, 02:37:05,VALID,1009.43,VALID,0,INVALID,136.249,VALID,0.112112,VALID,22.9129,VALID,6,VALID,0.00585938,
2014-10-12, 02:38:05,VALID,1009.43,VALID,0,INVALID,136.272,VALID,0,VALID,22.9536,VALID,6,VALID,0,
2014-10-12, 02:39:05,VALID,1009.43,VALID,0,INVALID,136.371,VALID,0,VALID,22.9519,VALID,6,VALID,0,
2014-10-12, 02:40:05,VALID,1009.45,VALID,0,INVALID,136.379,VALID,0.112112,VALID,22.9731,VALID,6,VALID,0,
2014-10-12, 02:41:05,VALID,1009.43,VALID,0,INVALID,136.387,VALID,0.112112,VALID,22.9519,VALID,6,VALID,0,
2014-10-12, 02:42:05,VALID,1009.44,VALID,0,INVALID,136.417,VALID,0,VALID,22.9731,VALID,6,VALID,0,
2014-10-12, 02:43:05,VALID,1009.4,VALID,0,INVALID,136.409,VALID,0,VALID,22.9324,VALID,6,VALID,0,
2014-10-12, 02:44:05,VALID,1009.41,VALID,0,INVALID,136.745,VALID,0,VALID,22.9731,VALID,6,VALID,0,
2014-10-12, 02:45:05,VALID,1009.4,VALID,0,INVALID,137.05,VALID,0,VALID,22.9926,VALID,6,VALID,0,
2014-10-12, 02:46:05,VALID,1009.42,VALID,0,INVALID,137.203,VALID,0.112112,VALID,22.9926,VALID,6,VALID,0,
2014-10-12, 02:47:05,VALID,1009.42,VALID,0,INVALID,137.347,VALID,0,VALID,23.0121,VALID,6,VALID,0,
2014-10-12, 02:48:05,VALID,1009.39,VALID,0,INVALID,137.386,VALID,0,VALID,23.0316,VALID,6,VALID,0,
2014-10-12, 02:49:05,VALID,1009.4,VALID,0,INVALID,137.355,VALID,0,VALID,23.0316,VALID,6,VALID,0,
2014-10-12, 02:50:05,VALID,1009.39,VALID,0,INVALID,137.34,VALID,0,VALID,23.0121,VALID,6,VALID,0,
2014-10-12, 02:51:05,VALID,1009.38,VALID,0,INVALID,137.363,VALID,0,VALID,23.0316,VALID,6,VALID,0,
2014-10-12, 02:52:05,VALID,1009.38,VALID,0,INVALID,137.393,VALID,0.112112,VALID,23.0316,VALID,6,VALID,0,
2014-10-12, 02:53:05,VALID,1009.38,VALID,0,INVALID,137.378,VALID,0,VALID,23.0316,VALID,6,VALID,0,
2014-10-12, 02:54:05,VALID,1009.37,VALID,0,INVALID,137.332,VALID,0.112112,VALID,23.0103,VALID,6,VALID,0,
2014-10-12, 02:55:04,VALID,1009.39,VALID,0,INVALID,137.302,VALID,0,VALID,22.9926,VALID,6,VALID,0,
2014-10-12, 02:56:04,VALID,1009.39,VALID,0,INVALID,137.317,VALID,0.112112,VALID,23.0121,VALID,6,VALID,0,
2014-10-12, 02:57:04,VALID,1009.39,VALID,0,INVALID,137.18,VALID,0,VALID,22.9926,VALID,6,VALID,0,
2014-10-12, 02:58:04,VALID,1009.38,VALID,0,INVALID,136.997,VALID,0,VALID,22.9943,VALID,6,VALID,0,
2014-10-12, 02:59:04,VALID,1009.39,VALID,0,INVALID,137.004,VALID,0,VALID,22.9731,VALID,6,VALID,0.170312,
2014-10-12, 03:00:04,VALID,1009.38,VALID,0,INVALID,137.081,VALID,0,VALID,22.9731,VALID,6,VALID,0.198437,
2014-10-12, 03:01:04,VALID,1009.42,VALID,0,INVALID,137.134,VALID,0,VALID,22.9926,VALID,6,VALID,0,
2014-10-12, 03:02:04,VALID,1009.4,VALID,0,INVALID,137.142,VALID,0,VALID,22.9926,VALID,6,VALID,0,
2014-10-12, 03:03:04,VALID,1009.42,VALID,0,INVALID,137.073,VALID,0,VALID,22.9926,VALID,6,VALID,0,
2014-10-12, 03:04:04,VALID,1009.41,VALID,0,INVALID,137.073,VALID,0,VALID,22.9926,VALID,6,VALID,0,
2014-10-12, 03:05:04,VALID,1009.38,VALID,0,INVALID,137.088,VALID,0,VALID,22.9731,VALID,6,VALID,0,
2014-10-12, 03:06:04,VALID,1009.4,VALID,0,INVALID,137.157,VALID,0,VALID,22.9926,VALID,6,VALID,0,
2014-10-12, 03:07:04,VALID,1009.41,VALID,0,INVALID,137.317,VALID,0,VALID,22.9926,VALID,6,VALID,0,
2014-10-12, 03:08:04,VALID,1009.42,VALID,0,INVALID,137.408,VALID,0,VALID,23.0121,VALID,6,VALID,0,
2014-10-12, 03:09:04,VALID,1009.43,VALID,0,INVALID,137.416,VALID,0,VALID,22.9926,VALID,6,VALID,0,
2014-10-12, 03:10:04,VALID,1009.42,VALID,0,INVALID,137.454,VALID,0,VALID,23.0121,VALID,6,VALID,0,
2014-10-12, 03:11:04,VALID,1009.42,VALID,0,INVALID,137.34,VALID,0,VALID,22.9926,VALID,6,VALID,0.148047,
2014-10-12, 03:12:04,VALID,1009.4,VALID,0,INVALID,137.256,VALID,0,VALID,22.9731,VALID,6,VALID,0.235547,
2014-10-12, 03:13:04,VALID,1009.41,VALID,0,INVALID,137.203,VALID,0,VALID,22.9519,VALID,6,VALID,0.173438,
2014-10-12, 03:14:04,VALID,1009.41,VALID,0,INVALID,137.233,VALID,0,VALID,22.9731,VALID,6,VALID,0.121094,
2014-10-12, 03:15:04,VALID,1009.41,VALID,0,INVALID,137.325,VALID,0,VALID,22.9943,VALID,6,VALID,0.155859,
2014-10-12, 03:16:04,VALID,1009.4,VALID,0,INVALID,137.401,VALID,0,VALID,23.0121,VALID,6,VALID,0.282813,
2014-10-12, 03:17:04,VALID,1009.38,VALID,0,INVALID,137.363,VALID,0,VALID,23.0121,VALID,6,VALID,0.373437,
2014-10-12, 03:18:04,VALID,1009.36,VALID,0,INVALID,137.302,VALID,0,VALID,23.0121,VALID,6,VALID,0.405859,
2014-10-12, 03:19:04,VALID,1009.35,VALID,0,INVALID,137.164,VALID,0,VALID,23.0121,VALID,6,VALID,0.441797,
2014-10-12, 03:20:04,VALID,1009.34,VALID,0,INVALID,137.081,VALID,0,VALID,23.0121,VALID,6,VALID,0.413672,
2014-10-12, 03:21:04,VALID,1009.32,VALID,0,INVALID,136.997,VALID,0,VALID,23.0121,VALID,6,VALID,0.342187,
2014-10-12, 03:22:04,VALID,1009.32,VALID,0,INVALID,136.798,VALID,0,VALID,23.0121,VALID,6,VALID,0.263672,
2014-10-12, 03:23:04,VALID,1009.3,VALID,0,INVALID,136.852,VALID,0,VALID,23.0121,VALID,6,VALID,0.125391,
2014-10-12, 03:24:04,VALID,1009.3,VALID,0,INVALID,136.913,VALID,0,VALID,23.0121,VALID,6,VALID,0.192969,
2014-10-12, 03:25:04,VALID,1009.29,VALID,0,INVALID,136.882,VALID,0,VALID,22.9943,VALID,6,VALID,0.294141,
2014-10-12, 03:26:04,VALID,1009.32,VALID,0,INVALID,137.172,VALID,0,VALID,22.9731,VALID,6,VALID,0.374609,
2014-10-12, 03:27:04,VALID,1009.31,VALID,0,INVALID,137.408,VALID,0,VALID,22.9731,VALID,6,VALID,0.317187,
2014-10-12, 03:28:04,VALID,1009.32,VALID,0,INVALID,137.492,VALID,0,VALID,22.9731,VALID,6,VALID,0.296094,
2014-10-12, 03:29:04,VALID,1009.32,VALID,0,INVALID,137.584,VALID,0,VALID,22.9926,VALID,6,VALID,0.292578,
2014-10-12, 03:30:04,VALID,1009.33,VALID,0,INVALID,137.561,VALID,0,VALID,22.9926,VALID,6,VALID,0.291797,
2014-10-12, 03:31:04,VALID,1009.31,VALID,0,INVALID,137.591,VALID,0,VALID,23.0138,VALID,6,VALID,0.0121094,
2014-10-12, 03:32:04,VALID,1009.33,VALID,0,INVALID,137.591,VALID,0,VALID,23.0121,VALID,6,VALID,0,
2014-10-12, 03:33:04,VALID,1009.34,VALID,0,INVALID,137.553,VALID,0,VALID,23.0316,VALID,6,VALID,0,
2014-10-12, 03:34:04,VALID,1009.39,VALID,0,INVALID,137.553,VALID,0,VALID,23.0298,VALID,6,VALID,0,
2014-10-12, 03:35:04,VALID,1009.4,VALID,0,INVALID,137.546,VALID,0,VALID,23.0316,VALID,6,VALID,0,
2014-10-12, 03:36:04,VALID,1009.41,VALID,0,INVALID,137.569,VALID,0,VALID,23.0705,VALID,6,VALID,0,
2014-10-12, 03:37:04,VALID,1009.44,VALID,0,INVALID,137.538,VALID,0,VALID,23.1112,VALID,6,VALID,0,
2014-10-12, 03:38:04,VALID,1009.46,VALID,0,INVALID,137.508,VALID,0,VALID,23.1112,VALID,6,VALID,0,
2014-10-12, 03:39:04,VALID,1009.45,VALID,0,INVALID,137.538,VALID,0,VALID,23.1095,VALID,6,VALID,0,
2014-10-12, 03:40:04,VALID,1009.47,VALID,0,INVALID,137.561,VALID,0,VALID,23.129,VALID,6,VALID,0,
2014-10-12, 03:41:04,VALID,1009.5,VALID,0,INVALID,137.538,VALID,0,VALID,23.1485,VALID,6,VALID,0,
2014-10-12, 03:42:04,VALID,1009.51,VALID,0,INVALID,137.492,VALID,0,VALID,23.1697,VALID,6,VALID,0.292578,
2014-10-12, 03:43:04,VALID,1009.53,VALID,0,INVALID,137.447,VALID,0,VALID,23.1485,VALID,6,VALID,0.305078,
2014-10-12, 03:44:04,VALID,1009.55,VALID,0,INVALID,137.386,VALID,0,VALID,23.1485,VALID,6,VALID,0.196484,
2014-10-12, 03:45:04,VALID,1009.56,VALID,0,INVALID,137.332,VALID,0,VALID,23.1485,VALID,6,VALID,0.266797,
2014-10-12, 03:46:04,VALID,1009.59,VALID,0,INVALID,137.218,VALID,0,VALID,23.1485,VALID,6,VALID,0.223828,
2014-10-12, 03:47:04,VALID,1009.6,VALID,0,INVALID,137.195,VALID,0,VALID,23.1272,VALID,6,VALID,0.262109,
2014-10-12, 03:48:04,VALID,1009.64,VALID,0,INVALID,137.126,VALID,0,VALID,23.1679,VALID,6,VALID,0,
2014-10-12, 03:49:04,VALID,1009.65,VALID,0,INVALID,137.088,VALID,0,VALID,23.1679,VALID,6,VALID,0,
2014-10-12, 03:50:04,VALID,1009.67,VALID,0,INVALID,136.951,VALID,0,VALID,23.1874,VALID,6,VALID,0,